DFR1 LATI-LGKR

Flight info

Callsign DFR1
Flight time 0h 38m
Altitude 20000
Route ELBAK DCT PITAS
Aircraft B738/M-SDE2E3FGHIRWXY/LB1

Departure

Time 2026-05-06 14:08
Airport Tirana International Airport Mother Teresa (LATI)

Arrival

Time 2026-05-06 14:47
Airport Corfu Ioannis Kapodistrias International Airport (LGKR)
Time Latitude Longitude Altitude Speed Heading
2026-05-06 13:21 41.41956 19.71518 119 ft 0 kts 263°
2026-05-06 13:58 41.41957 19.71525 119 ft 2 kts 263°
2026-05-06 13:58 41.41959 19.71545 119 ft 2 kts 263°
2026-05-06 13:58 41.41961 19.71565 119 ft 1 kts 263°
2026-05-06 13:59 41.41964 19.71578 119 ft 1 kts 214°
2026-05-06 13:59 41.41975 19.71580 118 ft 2 kts 163°
2026-05-06 13:59 41.41990 19.71576 118 ft 2 kts 179°
2026-05-06 13:59 41.41996 19.71576 118 ft 0 kts 176°
2026-05-06 14:03 41.41987 19.71577 118 ft 5 kts 176°
2026-05-06 14:03 41.41923 19.71582 119 ft 12 kts 177°
2026-05-06 14:03 41.41813 19.71599 121 ft 19 kts 174°
2026-05-06 14:04 41.41649 19.71620 122 ft 27 kts 174°
2026-05-06 14:04 41.41435 19.71649 124 ft 34 kts 174°
2026-05-06 14:04 41.41172 19.71684 128 ft 37 kts 175°
2026-05-06 14:04 41.40916 19.71718 128 ft 34 kts 173°
2026-05-06 14:05 41.40689 19.71748 128 ft 32 kts 175°
2026-05-06 14:05 41.40498 19.71771 130 ft 22 kts 175°
2026-05-06 14:05 41.40397 19.71789 131 ft 6 kts 143°
2026-05-06 14:05 41.40365 19.71828 131 ft 7 kts 137°
2026-05-06 14:06 41.40340 19.71893 131 ft 6 kts 105°
2026-05-06 14:06 41.40330 19.71943 131 ft 4 kts 105°
2026-05-06 14:06 41.40322 19.71981 132 ft 3 kts 105°
2026-05-06 14:06 41.40318 19.72018 132 ft 5 kts 96°
2026-05-06 14:07 41.40313 19.72085 133 ft 8 kts 96°
2026-05-06 14:07 41.40297 19.72168 135 ft 10 kts 104°
2026-05-06 14:07 41.40305 19.72219 135 ft 4 kts 359°
2026-05-06 14:07 41.40351 19.72209 134 ft 9 kts 354°
2026-05-06 14:08 41.40557 19.72176 132 ft 66 kts 353°
2026-05-06 14:08 41.41298 19.72081 128 ft 143 kts 355°
2026-05-06 14:08 41.42467 19.71902 365 ft 184 kts 350°
2026-05-06 14:08 41.43693 19.71575 1337 ft 179 kts 339°
2026-05-06 14:09 41.44835 19.70845 1935 ft 190 kts 331°
2026-05-06 14:09 41.46025 19.70279 2895 ft 178 kts 355°
2026-05-06 14:09 41.47228 19.70595 3620 ft 180 kts 17°
2026-05-06 14:09 41.48439 19.70987 4228 ft 183 kts
2026-05-06 14:10 41.49722 19.70979 4824 ft 188 kts 354°
2026-05-06 14:10 41.51043 19.70819 5437 ft 192 kts 353°
2026-05-06 14:10 41.52368 19.70641 6061 ft 194 kts 354°
2026-05-06 14:10 41.53727 19.70460 6661 ft 198 kts 354°
2026-05-06 14:11 41.55096 19.70279 7322 ft 197 kts 353°
2026-05-06 14:11 41.56476 19.70096 7801 ft 207 kts 353°
2026-05-06 14:11 41.57972 19.69898 8235 ft 220 kts 353°
2026-05-06 14:11 41.59537 19.69693 8643 ft 233 kts 353°
2026-05-06 14:12 41.61212 19.69364 8990 ft 251 kts 340°
2026-05-06 14:12 41.62752 19.68211 9460 ft 261 kts 316°
2026-05-06 14:12 41.63933 19.66313 9999 ft 271 kts 299°
2026-05-06 14:12 41.64711 19.63992 10569 ft 281 kts 281°
2026-05-06 14:13 41.64752 19.61353 11044 ft 293 kts 256°
2026-05-06 14:13 41.63946 19.58784 11526 ft 306 kts 237°
2026-05-06 14:13 41.62466 19.56645 11958 ft 323 kts 217°
2026-05-06 14:13 41.60349 19.55405 12384 ft 341 kts 191°
2026-05-06 14:14 41.57918 19.55316 12766 ft 360 kts 177°
2026-05-06 14:14 41.55397 19.55752 13370 ft 369 kts 173°
2026-05-06 14:14 41.52844 19.56342 14076 ft 374 kts 172°
2026-05-06 14:14 41.50250 19.56940 14822 ft 379 kts 173°
2026-05-06 14:15 41.47624 19.57496 15505 ft 385 kts 174°
2026-05-06 14:15 41.44967 19.58011 16172 ft 390 kts 174°
2026-05-06 14:15 41.42263 19.58505 16840 ft 394 kts 175°
2026-05-06 14:15 41.39506 19.58992 17472 ft 399 kts 175°
2026-05-06 14:16 41.36736 19.59476 18108 ft 404 kts 175°
2026-05-06 14:16 41.33905 19.59969 18749 ft 408 kts 175°
2026-05-06 14:16 41.31083 19.60528 19358 ft 414 kts 172°
2026-05-06 14:16 41.28280 19.61516 19894 ft 421 kts 163°
2026-05-06 14:17 41.25601 19.63314 20040 ft 429 kts 149°
2026-05-06 14:17 41.23238 19.65674 20058 ft 428 kts 143°
2026-05-06 14:17 41.20932 19.68272 20063 ft 429 kts 141°
2026-05-06 14:17 41.18692 19.70909 20066 ft 428 kts 140°
2026-05-06 14:18 41.16483 19.73538 20067 ft 428 kts 140°
2026-05-06 14:18 41.14254 19.76181 20064 ft 429 kts 140°
2026-05-06 14:18 41.11998 19.78832 20064 ft 429 kts 140°
2026-05-06 14:18 41.09739 19.81460 20067 ft 429 kts 141°
2026-05-06 14:19 41.07493 19.84058 20062 ft 430 kts 141°
2026-05-06 14:19 41.05229 19.86662 20070 ft 430 kts 141°
2026-05-06 14:19 41.02977 19.89243 20059 ft 429 kts 141°
2026-05-06 14:19 41.00711 19.91834 20048 ft 429 kts 141°
2026-05-06 14:20 40.98421 19.94445 20058 ft 429 kts 141°
2026-05-06 14:20 40.96141 19.97039 20056 ft 429 kts 141°
2026-05-06 14:20 40.93870 19.99618 20071 ft 431 kts 141°
2026-05-06 14:20 40.91559 20.02117 20071 ft 429 kts 144°
2026-05-06 14:21 40.89073 20.04258 20076 ft 426 kts 155°
2026-05-06 14:21 40.86279 20.05674 20081 ft 423 kts 168°
2026-05-06 14:21 40.83403 20.06305 20077 ft 419 kts 178°
2026-05-06 14:21 40.80517 20.06382 20079 ft 416 kts 185°
2026-05-06 14:22 40.77629 20.06079 20076 ft 415 kts 190°
2026-05-06 14:22 40.74790 20.05503 20081 ft 414 kts 193°
2026-05-06 14:22 40.71973 20.04798 20088 ft 413 kts 194°
2026-05-06 14:22 40.69127 20.04038 20085 ft 412 kts 195°
2026-05-06 14:23 40.66307 20.03279 20092 ft 414 kts 194°
2026-05-06 14:23 40.63495 20.02533 20095 ft 413 kts 194°
2026-05-06 14:23 40.60625 20.01786 20092 ft 413 kts 194°
2026-05-06 14:23 40.57812 20.01065 20095 ft 413 kts 194°
2026-05-06 14:24 40.54968 20.00347 20091 ft 413 kts 194°
2026-05-06 14:24 40.52101 19.99628 20093 ft 413 kts 194°
2026-05-06 14:24 40.49276 19.98924 20092 ft 413 kts 194°
2026-05-06 14:24 40.46424 19.98216 20093 ft 414 kts 194°
2026-05-06 14:25 40.43588 19.97517 20091 ft 414 kts 194°
2026-05-06 14:25 40.40738 19.96816 20089 ft 414 kts 194°
2026-05-06 14:25 40.37895 19.96119 20087 ft 414 kts 193°
2026-05-06 14:25 40.35047 19.95419 20098 ft 415 kts 194°
2026-05-06 14:26 40.32226 19.94728 20096 ft 414 kts 194°
2026-05-06 14:26 40.29378 19.94032 20087 ft 414 kts 193°
2026-05-06 14:26 40.26546 19.93340 20088 ft 414 kts 194°
2026-05-06 14:26 40.23699 19.92644 20096 ft 415 kts 194°
2026-05-06 14:27 40.20853 19.91948 20089 ft 414 kts 194°
2026-05-06 14:27 40.18005 19.91254 20096 ft 415 kts 194°
2026-05-06 14:27 40.15161 19.90560 20095 ft 414 kts 194°
2026-05-06 14:27 40.12297 19.89862 20091 ft 414 kts 194°
2026-05-06 14:28 40.09470 19.89174 20093 ft 415 kts 194°
2026-05-06 14:28 40.06639 19.88486 20087 ft 415 kts 194°
2026-05-06 14:28 40.03812 19.87801 20087 ft 415 kts 194°
2026-05-06 14:28 40.00953 19.87107 20093 ft 415 kts 194°
2026-05-06 14:29 39.98091 19.86412 20095 ft 415 kts 194°
2026-05-06 14:29 39.95262 19.85731 20091 ft 415 kts 193°
2026-05-06 14:29 39.92390 19.85223 20093 ft 417 kts 187°
2026-05-06 14:29 39.89484 19.85260 20078 ft 419 kts 176°
2026-05-06 14:30 39.86621 19.86071 20088 ft 423 kts 166°
2026-05-06 14:30 39.83828 19.87293 20098 ft 425 kts 162°
2026-05-06 14:30 39.81073 19.88657 20092 ft 425 kts 161°
2026-05-06 14:30 39.78308 19.90088 20090 ft 425 kts 160°
2026-05-06 14:31 39.75594 19.91508 20091 ft 425 kts 160°
2026-05-06 14:31 39.72829 19.92948 20088 ft 425 kts 160°
2026-05-06 14:31 39.70031 19.94245 20088 ft 422 kts 168°
2026-05-06 14:31 39.67164 19.94621 20092 ft 417 kts 186°
2026-05-06 14:32 39.64332 19.93832 20095 ft 410 kts 205°
2026-05-06 14:32 39.61917 19.91996 20095 ft 403 kts 223°
2026-05-06 14:32 39.60016 19.89366 19986 ft 398 kts 236°
2026-05-06 14:32 39.58543 19.86395 19486 ft 391 kts 243°
2026-05-06 14:33 39.57222 19.83341 18838 ft 390 kts 242°
2026-05-06 14:33 39.55764 19.80365 18184 ft 390 kts 237°
2026-05-06 14:33 39.54114 19.77600 17561 ft 390 kts 232°
2026-05-06 14:33 39.52190 19.75126 16943 ft 392 kts 221°
2026-05-06 14:34 39.49876 19.73291 16303 ft 394 kts 206°
2026-05-06 14:34 39.47231 19.72383 15667 ft 396 kts 188°
2026-05-06 14:34 39.44476 19.72359 15062 ft 397 kts 177°
2026-05-06 14:34 39.41767 19.72829 14433 ft 396 kts 172°
2026-05-06 14:35 39.39068 19.73553 13784 ft 394 kts 169°
2026-05-06 14:35 39.36413 19.74358 13155 ft 392 kts 167°
2026-05-06 14:35 39.33833 19.75451 12519 ft 390 kts 159°
2026-05-06 14:35 39.31436 19.76995 11901 ft 388 kts 150°
2026-05-06 14:36 39.29210 19.78900 11373 ft 376 kts 144°
2026-05-06 14:36 39.27217 19.80946 10898 ft 359 kts 141°
2026-05-06 14:36 39.25357 19.82949 10415 ft 344 kts 141°
2026-05-06 14:36 39.23537 19.84878 9915 ft 331 kts 142°
2026-05-06 14:37 39.21762 19.86750 9417 ft 319 kts 142°
2026-05-06 14:37 39.20061 19.88541 8927 ft 309 kts 142°
2026-05-06 14:37 39.18407 19.90275 8426 ft 301 kts 142°
2026-05-06 14:37 39.16811 19.91944 7928 ft 293 kts 142°
2026-05-06 14:38 39.15404 19.93807 7427 ft 287 kts 120°
2026-05-06 14:38 39.14873 19.96233 6936 ft 280 kts 86°
2026-05-06 14:38 39.15309 19.98656 6452 ft 274 kts 71°
2026-05-06 14:38 39.16020 20.00912 5966 ft 268 kts 58°
2026-05-06 14:39 39.17258 20.02580 5685 ft 254 kts 27°
2026-05-06 14:39 39.18952 20.03257 5449 ft 261 kts
2026-05-06 14:39 39.20783 20.03168 5196 ft 262 kts 350°
2026-05-06 14:39 39.22592 20.02788 4935 ft 262 kts 355°
2026-05-06 14:40 39.24432 20.02760 4694 ft 261 kts
2026-05-06 14:40 39.26252 20.02732 4452 ft 260 kts 356°
2026-05-06 14:40 39.28063 20.02510 4201 ft 260 kts 351°
2026-05-06 14:40 39.29853 20.02109 3944 ft 259 kts 348°
2026-05-06 14:41 39.31621 20.01600 3739 ft 252 kts 346°
2026-05-06 14:41 39.33266 20.01069 3684 ft 239 kts 345°
2026-05-06 14:41 39.34855 20.00526 3625 ft 227 kts 344°
2026-05-06 14:41 39.36340 20.00001 3571 ft 214 kts 344°
2026-05-06 14:42 39.37748 19.99493 3536 ft 199 kts 343°
2026-05-06 14:42 39.39043 19.99019 3456 ft 185 kts 343°
2026-05-06 14:42 39.40274 19.98565 3411 ft 185 kts 343°
2026-05-06 14:42 39.41534 19.98098 3353 ft 185 kts 344°
2026-05-06 14:43 39.42783 19.97659 3252 ft 186 kts 343°
2026-05-06 14:43 39.44034 19.97186 3047 ft 180 kts 343°
2026-05-06 14:43 39.45188 19.96745 2823 ft 166 kts 343°
2026-05-06 14:43 39.46271 19.96335 2634 ft 161 kts 343°
2026-05-06 14:44 39.47362 19.95922 2392 ft 160 kts 343°
2026-05-06 14:44 39.48429 19.95522 2184 ft 159 kts 343°
2026-05-06 14:44 39.49506 19.95118 1969 ft 159 kts 342°
2026-05-06 14:45 39.51631 19.94319 1548 ft 158 kts 343°
2026-05-06 14:45 39.52691 19.93920 1340 ft 158 kts 343°
2026-05-06 14:45 39.53757 19.93520 1127 ft 157 kts 344°
2026-05-06 14:45 39.54802 19.93134 922 ft 157 kts 344°
2026-05-06 14:46 39.55823 19.92628 759 ft 155 kts 335°
2026-05-06 14:46 39.56820 19.92047 587 ft 156 kts 343°
2026-05-06 14:46 39.57896 19.91746 374 ft 161 kts 355°
2026-05-06 14:46 39.59016 19.91507 96 ft 159 kts 351°
2026-05-06 14:47 39.60010 19.91268 14 ft 113 kts 351°
2026-05-06 14:47 39.60484 19.91146 17 ft 30 kts 350°
2026-05-06 14:47 39.60521 19.91151 17 ft 0 kts 44°
2026-05-06 14:48 39.60525 19.91154 17 ft 3 kts 24°
2026-05-06 14:48 39.60583 19.91209 18 ft 16 kts 49°
2026-05-06 14:48 39.60650 19.91317 20 ft 11 kts 85°
2026-05-06 14:48 39.60656 19.91366 20 ft 2 kts 77°
2026-05-06 14:49 39.60657 19.91373 20 ft 0 kts 77°